カタリナ彗星

C/2021 C3 ( Catalina )

English version
Home page
Updated on July 12, 2021

---------------------------------------------------------------------

・ プロフィール

発見日 2021年2月7日
発見光度 19.1等
発見者 Catalina Sky Survey

・ 写真集

・ 軌道要素

Epoch 2021 July 5.0 TT = JDT 2459400.5
T 2021 Feb. 12.43854 TT                                 Rudenko
q   2.2764672            (2000.0)            P               Q
z  +0.0157895      Peri.  357.14988     -0.99731460     -0.06751629
 +/-0.0000003      Node   181.92084     -0.03824247     +0.14967654
e   0.9640557      Incl.  122.16286     -0.06245873     +0.98642713
From 367 observations 2021 Jan. 16-June 9, mean residual 0".6.

・ 光度変化

        m1 = 4.0 + 5 logΔ + 35.0 log r(t - 60)

---------------------------------------------------------------------

軌道要素はM.P.E.C. 2021-N06に掲載されたものです。
光度グラフはComet for Windowsで作成したものです。

---------------------------------------------------------------------

Copyright(C) Seiichi Yoshida (comet@aerith.net). All rights reserved.